Regional Weather Roundup
Issued by NWS Upton, NY

Current Version | Previous Version | Graphics & Text | Print | Product List | Glossary Off
Versions: 1 2 3 4 5 6 7 8 9 10 11 12 13 14 15 16 17 18 19 20 21 22 23 24 25 26 27 28 29 30 31 32 33 34 35 36 37 38 39 40 41 42 43 44 45 46 47 48 49 50

000
ASUS41 KOKX 261619
RWROKX

REGIONAL WEATHER ROUNDUP
NATIONAL WEATHER SERVICE NEW YORK NY
1200 PM EDT TUE MAY 26 2015

NOTE: "FAIR" INDICATES FEW OR NO CLOUDS BELOW 12,000 FEET WITH NO
SIGNIFICANT WEATHER AND/OR OBSTRUCTIONS TO VISIBILITY.

NYZ071-072-176-178-NJZ106-104-261700-
NEW YORK CITY METRO AREA


CITY           SKY/WX    TMP DP  RH WIND       PRES   REMARKS
CENTRAL PARK   SUNNY     82  61  48 VRB7      30.22F
LAGUARDIA APRT MOSUNNY   82  58  43 SW13      30.19F
KENNEDY INTL   MOSUNNY   74  60  61 S8        30.23S
NEWARK/LIBERTY MOSUNNY   85  60  42 SW10      30.19F
BRNX BOT. GARD   N/A     81  59  47 SW8       30.20S
TETERBORO      SUNNY     83  60  45 S13       30.17F
$$

NYZ177-179-078>081-261700-
LONG ISLAND NEW YORK

CITY           SKY/WX    TMP DP  RH WIND       PRES   REMARKS
FARMINGDALE    SUNNY     75  63  66 S10       30.23R
ISLIP          MOSUNNY   74  60  61 S15       30.21S
SHIRLEY        SUNNY     73  60  63 SW12G20   30.24R
WESTHAMPTON    SUNNY     69  60  73 SW13      30.25S
MONTAUK POINT    N/A     68  59  73 S13G21    30.24S
$$

NYZ052-065-067-261700-
HUDSON VALLEY

CITY           SKY/WX    TMP DP  RH WIND       PRES   REMARKS
WHITE PLAINS   SUNNY     81  60  48 S6        30.20F
NEWBURGH       PTSUNNY   79  66  65 W7        30.20S
MONTGOMERY     MOSUNNY   82  66  58 SW6       30.17F
POUGHKEEPSIE   MOSUNNY   81  62  52 SW10      30.17F
ALBANY         CLOUDY    84  63  49 S8        30.13S
$$

NJZ001-105-106-008-010-013-015-019>022-104-261700-
NEW JERSEY

CITY           SKY/WX    TMP DP  RH WIND       PRES   REMARKS
NEWARK/LIBERTY MOSUNNY   85  60  42 SW10      30.19F
TETERBORO      SUNNY     83  60  45 S13       30.17F
CALDWELL       SUNNY     81  60  48 VRB6      30.20F
MORRISTOWN     NOT AVBL
SOMERVILLE     MOSUNNY   83  62  49 VRB6      30.18F
SUSSEX         MOSUNNY   79  62  56 SW8       30.20F
ANDOVER          N/A     80  62  54 VRB6      30.20F
TRENTON        SUNNY     83  61  47 SW9       30.21F
MILLVILLE      SUNNY     80  65  59 SW10G18   30.24F
ATLANTIC CITY  SUNNY     82  63  52 SW15G22   30.23F
WRIGHTSTOWN    SUNNY     85  62  45 SW13G21   30.19F
TOMS RIVER     SUNNY    N/A N/A N/A W16       30.21F
BELMAR         SUNNY     84  59  42 SW14G21   30.21F
$$

PAZ047>061-062-071-261700-
EASTERN PENNSYLVANIA

CITY           SKY/WX    TMP DP  RH WIND       PRES   REMARKS
PHILADELPHIA   MOSUNNY   83  62  49 SW18      30.22F
ALLENTOWN      MOSUNNY   84  61  45 SW8       30.20F
SCRANTON       PTSUNNY   82  60  47 SW6       30.19F
$$

CTZ002-004>006-009-010-012-RIZ004-006-007-MAZ004-011-015-261700-
SOUTHERN NEW ENGLAND
 IN CT

CITY           SKY/WX    TMP DP  RH WIND       PRES   REMARKS
BRADLEY INTL   CLOUDY    79  61  53 S9        30.16F
HARTFORD       CLOUDY    76  61  59 S12G22    30.17F
DANBURY        MOSUNNY   80  60  50 VRB7      30.20F
WTRBRY/OXFORD  NOT AVBL
BRIDGEPORT     MOSUNNY   77  60  55 SW13      30.20F
MERIDEN        PTSUNNY   81  61  50 S8        30.18F
NEW HAVEN      MOSUNNY   75  61  61 S10       30.21S
CHESTER        FAIR      77  61  57 SW12G17   30.21F
GROTON         PTSUNNY   69  59  70 SW13      30.21F
WILLIMANTIC    CLOUDY    77  60  55 SW8       30.20R

 IN RI

CITY           SKY/WX    TMP DP  RH WIND       PRES   REMARKS
PROVIDENCE     CLOUDY    78  60  53 SW8       30.19F
BLOCK ISLAND   MOSUNNY   63  55  77 SW23      30.24F
WESTERLY       PTSUNNY   68  58  70 S7        30.23S

 IN MA

CITY           SKY/WX    TMP DP  RH WIND       PRES   REMARKS
BOSTON         CLOUDY    77  60  55 SW14      30.15
WORCESTER      CLOUDY    74  59  59 SW12      30.19S
WESTFIELD      CLOUDY    79  60  52 S15       30.16F
PROVINCETOWN   PTSUNNY   64  55  72 SW18G26   30.19R
NANTUCKET      MOSUNNY   65  57  75 SW22      30.25F
$$

ANZ330-335-338-340-345-350-353-355-261700-
COASTAL MARINE OBSERVATIONS


STATION/POSITION TIME  SKY/WX   TEMP    WIND        PRES    VSBY  WAVE
                                AIR SEA DIR/SP/G                  HT/PER
                 (UTC)          (F)     (DEG/KT/KT) (MB)    (MI)  (FT/S)
NY HARB ENTRANCE 1550            61 57  190/ 14/ 19 1022.8          3/ 4
4S FIRE IS       1503               54                N/A           4/ 5
20S FIRE ISLAND  1550            59 55  200/ 16/ 17 1023.5          3/ 5
GREAT SOUTH BAY  1500            62 65  230/ 14/ 17   N/A
23SW MTP         1550            57 53  220/ 12/ 14 1024.2          3/ 5
HUDSON CANYON    NOT AVBL
KINGS POINT      1500            74 58  220/  9/ 12 1022.3
CENTRAL LI SOUND 1500            62 55  300/  4/  8   N/A
EASTERN LI SOUND 1500            60     210/ 10/ 12   N/A
ROBBINS REEF     1500            75     230/  5/  9 1021.9
$$


>>>>>>>>>>>>>>>>>>>>>>>>>>>> KEY <<<<<<<<<<<<<<<<<<<<<<<<<<<
>                                                          <
>     SKY/WX - SKY CONDITION/PRESENT WEATHER               <
>     TMP    - TEMPERATURE IN FAHRENHEIT                   <
>     DP     - DEWPOINT IN FAHRENHEIT                      <
>     RH     - RELATIVE HUMIDITY IN PERCENT                <
>     WIND   - DIRECTION AND SPEED IN MPH                  <
>     PRES   - MEAN SEA LEVEL PRESSURE IN INCHES OF HG     <
>     WCI    - WIND CHILL INDEX                            <
>     VSB    - VISIBILITY IN MILES                         <
>     HX     - HEAT INDEX                                  <
>     TC     - TEMPERATURE IN CELSIUS                      <
>     VRB    - VARIABLE WIND DIRECTION                     <
>                                                          <
>>>>>>>>>>>>>>>>>>>>>>>>>>>> KEY <<<<<<<<<<<<<<<<<<<<<<<<<<<





USA.gov is the U.S. government's official web portal to all federal, state and local government web resources and services.